Waarnemingen

Advertentie
Mijn weer
Wick Airport (AWS), Groot Brittannië (3075): temperatuur & dauwpunt: 13.06.2018 05:00:00 - 19.06.2018 05:00:00 (BST)Wick Airport (AWS), Groot Brittannië (3075): temperatuur -20cm: 13.06.2018 05:00:00 - 19.06.2018 05:00:00 (BST)Wick Airport (AWS), Groot Brittannië (3075): windsnelheid & windstoten: 13.06.2018 05:00:00 - 19.06.2018 05:00:00 (BST)Wick Airport (AWS), Groot Brittannië (3075): windrichting: 13.06.2018 05:00:00 - 19.06.2018 05:00:00 (BST)Wick Airport (AWS), Groot Brittannië (3075): luchtdruk: 13.06.2018 05:00:00 - 19.06.2018 05:00:00 (BST)Wick Airport (AWS), Groot Brittannië (3075): zicht: 13.06.2018 05:00:00 - 19.06.2018 05:00:00 (BST)Wick Airport (AWS), Groot Brittannië (3075): neerslag: 13.06.2018 05:00:00 - 19.06.2018 05:00:00 (BST)
Datum & Tijd tt [°C] td [°C] tt -20cm [°C] ff [km/u] ff [kn] fx [km/u] fx [kn] dd ppp [hPa] vv [km] rr [mm]
19.06.2018 05:00:00 9,0 5,0 - 26 14 50 27 WZW 1008,3 22 0,0
19.06.2018 04:00:00 9,0 4,5 - 28 15 46 25 ZW 1007,7 26 0,0
19.06.2018 03:00:00 9,1 4,5 - 29 16 - - ZW 1007,0 25 0,0
19.06.2018 02:00:00 9,2 4,3 - 26 14 50 27 WZW 1007,0 27 -
19.06.2018 01:00:00 9,2 3,9 - 34 18 54 29 WZW 1006,5 35 -
19.06.2018 00:00:00 9,4 5,0 - 35 19 52 28 WZW 1005,9 25 0,0
18.06.2018 23:00:00 9,7 5,2 - 31 17 - - ZW 1005,9 29 0,0
18.06.2018 22:00:00 10,8 4,9 - 26 14 59 32 ZW 1005,7 29 0,0
18.06.2018 21:00:00 11,2 4,8 - 39 21 72 39 WZW 1005,1 28 0,0
18.06.2018 20:00:00 13,2 4,2 - 41 22 65 35 WZW 1004,4 21 0,0
18.06.2018 19:00:00 13,2 5,1 - 46 25 80 43 WZW 1004,2 35 0,0
18.06.2018 18:00:00 14,2 5,2 - 42 23 70 38 WZW 1004,2 24 0,0
18.06.2018 17:00:00 14,3 4,8 - 42 23 65 35 WZW 1004,2 40 0,0
18.06.2018 16:00:00 14,8 6,1 - 48 26 61 33 WZW 1004,6 30 0,0
18.06.2018 15:00:00 14,5 6,6 - 26 14 50 27 ZW 1004,7 45 0,0
18.06.2018 14:00:00 15,1 5,1 - 35 19 55 30 WZW 1004,7 25 0,0
18.06.2018 13:00:00 15,4 5,9 - 41 22 57 31 WZW 1004,8 30 0,0
18.06.2018 12:00:00 14,4 4,4 - 39 21 59 32 WZW 1004,9 30 0,0
18.06.2018 11:00:00 13,7 5,0 - 41 22 57 31 WZW 1005,4 40 0,0
18.06.2018 10:00:00 14,4 6,8 13,9 41 22 55 30 WZW 1004,8 35 0,0
18.06.2018 09:00:00 12,7 6,7 - 34 18 46 25 ZW 1005,0 24 0,0
18.06.2018 08:00:00 11,9 6,3 - 28 15 - - ZW 1004,8 22 0,0
18.06.2018 07:00:00 11,8 6,5 - 29 16 - - ZW 1004,7 22 0,0
18.06.2018 06:00:00 11,9 6,4 - 34 18 46 25 ZW 1004,3 25 0,0
18.06.2018 05:00:00 11,1 6,9 - 24 13 - - ZW 1003,9 22 0,0
18.06.2018 04:00:00 11,7 8,1 - 24 13 - - ZW 1003,7 50 0,0
18.06.2018 03:00:00 12,2 9,4 - 21 11 - - WZW 1003,0 50 0,0
18.06.2018 02:00:00 12,9 10,9 - 15 8 - - ZZW 1003,2 50 0,0
18.06.2018 01:00:00 12,8 10,8 - 24 13 - - ZZW 1002,4 45 0,0
18.06.2018 00:00:00 12,7 10,8 - 24 13 - - ZZW 1002,5 50 0,0
17.06.2018 23:00:00 12,6 10,7 - 22 12 - - Z 1002,8 45 0,0
17.06.2018 22:00:00 12,3 10,7 - 21 11 - - Z 1003,0 40 0,4
17.06.2018 21:00:00 12,9 9,5 - 21 11 - - ZZO 1003,9 25 0,0
17.06.2018 20:00:00 13,5 9,0 - 16 9 - - ZZO 1004,3 35 0,0
17.06.2018 19:00:00 13,0 9,0 - 18 10 - - ZZO 1004,6 25 0,0
17.06.2018 18:00:00 12,9 8,7 - 18 10 - - ZZO 1005,2 29 0,0
17.06.2018 17:00:00 13,3 8,9 - 21 11 - - ZZO 1005,8 21 0,0
17.06.2018 16:00:00 13,3 9,6 - 21 11 - - ZO 1006,0 30 0,0
17.06.2018 15:00:00 13,4 9,2 - 21 11 - - ZO 1006,5 15 0,0
17.06.2018 14:00:00 13,6 9,5 - 18 10 - - ZO 1006,6 30 0,0
17.06.2018 13:00:00 12,6 8,4 - 18 10 - - ZZO 1006,8 17 0,0
17.06.2018 12:00:00 12,8 8,4 - 15 8 - - ZO 1006,9 17 0,0
17.06.2018 11:00:00 14,1 10,0 - 9 5 - - N 1006,5 26 0,0
17.06.2018 10:00:00 12,0 9,1 13,5 11 6 - - NW 1007,0 16 0,0
17.06.2018 09:00:00 11,2 10,7 - 13 7 - - NNW 1007,0 14 0,0
17.06.2018 08:00:00 10,6 9,8 - 13 7 - - WNW 1006,7 5 0,2
17.06.2018 07:00:00 11,3 10,3 - 8 4 - - ZZW 1006,3 20 0,0
17.06.2018 06:00:00 10,7 9,8 - 9 5 - - Z 1006,3 21 0,0
17.06.2018 05:00:00 10,3 9,5 - 4 2 - - ZZO 1006,3 23 0,0
17.06.2018 04:00:00 10,2 9,7 - 8 4 - - ZZO 1006,4 17 0,0
17.06.2018 03:00:00 10,1 9,6 - 11 6 - - OZO 1006,5 10 0,0
17.06.2018 02:00:00 10,2 9,4 - 8 4 - - OZO 1006,8 18 0,0
17.06.2018 01:00:00 10,0 9,0 - 11 6 - - OZO 1006,6 30 0,0
17.06.2018 00:00:00 10,2 9,3 - 11 6 - - OZO 1006,4 25 0,0
16.06.2018 23:00:00 10,4 9,7 - 13 7 - - OZO 1006,7 15 0,0
16.06.2018 22:00:00 10,7 9,9 - 13 7 - - OZO 1006,6 15 0,0
16.06.2018 21:00:00 11,2 10,3 - 16 9 - - ZO 1006,4 14 0,0
16.06.2018 20:00:00 11,9 10,7 - 16 9 - - OZO 1006,4 17 0,0
16.06.2018 19:00:00 11,8 10,9 - 11 6 - - ZO 1006,5 29 0,4
16.06.2018 18:00:00 11,4 10,0 - 18 10 - - ZZO 1006,7 12 0,0
16.06.2018 17:00:00 12,0 9,7 - 18 10 - - ZO 1006,6 14 0,0
16.06.2018 16:00:00 13,1 9,8 - 22 12 - - ZO 1006,5 19 0,0
16.06.2018 15:00:00 13,0 9,7 - 24 13 - - OZO 1006,7 14 0,0
16.06.2018 14:00:00 12,3 10,1 - 21 11 - - OZO 1007,0 15 0,0
16.06.2018 13:00:00 12,9 10,2 - 18 10 - - ZO 1007,5 17 0,0
16.06.2018 12:00:00 12,5 9,7 - 16 9 - - ZZO 1007,6 19 0,0
16.06.2018 11:00:00 12,5 9,8 - 18 10 - - ZO 1007,8 35 0,0
16.06.2018 10:00:00 12,5 9,4 13,0 15 8 - - ZO 1008,1 35 0,0
16.06.2018 09:00:00 12,3 9,2 - 16 9 - - ZO 1008,3 35 0,0
16.06.2018 08:00:00 11,3 8,5 - 18 10 - - ZZO 1008,5 50 0,0
16.06.2018 07:00:00 11,1 8,5 - 13 7 - - ZZO 1008,5 40 0,0
16.06.2018 06:00:00 10,4 8,0 - 11 6 - - Z 1008,3 28 0,0
16.06.2018 05:00:00 9,5 8,3 - 11 6 - - ZZO 1008,7 30 0,0
16.06.2018 04:00:00 10,3 8,5 - 11 6 - - Z 1009,0 40 0,0
16.06.2018 03:00:00 10,7 8,8 - 8 4 - - ZZW 1009,1 50 0,0
16.06.2018 02:00:00 10,8 9,1 - 9 5 - - ZZO 1009,4 35 0,0
16.06.2018 01:00:00 10,9 9,2 - 8 4 - - Z 1009,6 35 0,0
16.06.2018 00:00:00 10,6 8,6 - 11 6 - - Z 1009,6 50 0,0
15.06.2018 23:00:00 10,9 8,5 - 11 6 - - Z 1009,5 50 0,0
15.06.2018 22:00:00 10,4 9,0 - 4 2 - - ZZW 1009,4 35 0,0
15.06.2018 21:00:00 10,8 8,8 - 9 5 - - NO 1009,1 45 0,0
15.06.2018 20:00:00 12,7 8,4 - 5 3 - - NNO 1008,7 45 0,0
15.06.2018 19:00:00 14,6 9,2 - 8 4 - - W 1008,4 28 0,0
15.06.2018 18:00:00 11,2 8,9 - 11 6 - - ZO 1008,5 22 2,0
15.06.2018 17:00:00 11,9 8,7 - 15 8 - - O 1008,3 30 0,0
15.06.2018 16:00:00 12,3 9,0 - 13 7 - - ONO 1008,6 24 0,6
15.06.2018 15:00:00 13,6 8,0 - 15 8 - - N 1007,9 21 0,0
15.06.2018 14:00:00 16,1 5,6 - 21 11 46 25 W 1007,3 35 0,0
15.06.2018 13:00:00 14,9 5,9 - 29 16 - - WZW 1007,0 24 0,0
15.06.2018 12:00:00 14,0 5,2 - 34 18 - - WZW 1006,9 45 0,0
15.06.2018 11:00:00 13,3 6,3 - 26 14 - - WZW 1006,5 40 0,0
15.06.2018 10:00:00 11,5 8,2 13,0 21 11 - - ZW 1006,2 50 0,0
15.06.2018 09:00:00 11,5 9,2 - 15 8 - - ZW 1005,8 45 0,0
15.06.2018 08:00:00 11,5 7,9 - 29 16 - - ZW 1005,3 9 0,0
15.06.2018 07:00:00 10,5 7,1 - 21 11 - - ZZW 1004,7 50 0,0
15.06.2018 06:00:00 10,0 7,3 - 24 13 - - ZZW 1004,5 35 0,0
15.06.2018 05:00:00 9,8 6,6 - 24 13 - - Z 1004,3 35 0,0
15.06.2018 04:00:00 9,7 6,1 - 21 11 - - ZZW 1003,9 30 0,0
15.06.2018 03:00:00 9,3 5,8 - 28 15 - - ZW 1003,5 29 0,0
15.06.2018 02:00:00 8,9 6,3 - 22 12 - - ZW 1003,2 40 0,0
15.06.2018 01:00:00 8,8 5,6 - 22 12 - - ZZW 1002,9 35 0,0
15.06.2018 00:00:00 9,4 5,1 - 31 17 - - ZW 1002,4 30 0,0
14.06.2018 23:00:00 9,4 4,9 - 21 11 - - ZZW 1001,9 30 0,0
14.06.2018 22:00:00 10,2 4,2 - 39 21 59 32 WZW 1001,0 30 0,0
14.06.2018 21:00:00 10,8 5,4 - 39 21 72 39 WZW 999,9 22 0,0
14.06.2018 20:00:00 11,1 5,9 - 46 25 65 35 WZW 998,8 26 0,0
14.06.2018 19:00:00 10,6 5,8 - 50 27 80 43 W 997,6 21 0,0
14.06.2018 18:00:00 11,6 6,7 - 48 26 80 43 W 996,1 40 0,0
14.06.2018 17:00:00 11,9 5,5 - 55 30 87 47 WZW 995,0 35 0,0
14.06.2018 16:00:00 13,2 5,2 - 61 33 94 51 W 993,1 22 0,0
14.06.2018 15:00:00 12,8 6,7 - 67 36 94 51 W 990,8 20 0,0
14.06.2018 14:00:00 11,8 8,7 - 63 34 89 48 W 988,6 15 0,0
14.06.2018 13:00:00 12,6 9,5 - 65 35 89 48 W 985,9 16 0,0
14.06.2018 12:00:00 12,6 10,2 - 54 29 74 40 W 983,0 30 0,4
14.06.2018 11:00:00 16,1 12,1 - 41 22 57 31 ZZW 980,1 4,4 0,0
14.06.2018 10:00:00 15,6 10,3 13,7 39 21 65 35 ZZW 979,8 35 0,0
14.06.2018 09:00:00 15,7 11,5 - 35 19 63 34 ZZW 979,5 30 0,0
14.06.2018 08:00:00 15,5 12,1 - 42 23 63 34 Z 979,5 20 0,0
14.06.2018 07:00:00 14,8 12,0 - 29 16 50 27 Z 981,0 30 0,2
14.06.2018 06:00:00 14,8 12,5 - 0 0 - - N 982,1 9 0,0
14.06.2018 05:00:00 12,6 11,1 - 0 0 - - N 984,0 13 0,0
14.06.2018 04:00:00 13,0 11,2 - 0 0 - - N 985,4 18 0,0
14.06.2018 03:00:00 12,4 11,2 - 0 0 - - N 986,4 13 0,0
14.06.2018 02:00:00 12,3 11,3 - 0 0 - - N 988,1 12 0,0
14.06.2018 01:00:00 11,8 11,5 - 0 0 - - N 990,6 8 0,4
14.06.2018 00:00:00 11,6 11,3 - 0 0 - - N 992,9 5 0,8
13.06.2018 23:00:00 11,9 11,4 - - - - - - 995,3 7 0,2
13.06.2018 22:00:00 11,8 11,3 - 22 12 - - ZZO 997,6 6 1,2
13.06.2018 21:00:00 11,9 11,2 - 26 14 - - ZZO 999,2 9 0,2
13.06.2018 20:00:00 11,5 10,4 - 24 13 - - ZZO 1000,7 14 0,8
13.06.2018 19:00:00 11,2 10,4 - 26 14 - - ZZO 1002,3 9 0,8
13.06.2018 18:00:00 11,5 10,4 - 21 11 - - ZZO 1003,5 10 0,6
13.06.2018 17:00:00 11,9 9,8 - 18 10 - - Z 1005,0 13 0,4
13.06.2018 16:00:00 11,8 9,4 - 22 12 - - Z 1006,1 11 0,2
13.06.2018 15:00:00 12,4 9,8 - 18 10 - - ZZO 1007,1 17 0,0
13.06.2018 14:00:00 12,6 9,0 - 16 9 - - ZZO 1008,2 30 0,0
13.06.2018 13:00:00 13,1 9,4 - 18 10 - - ZZO 1009,1 30 0,0
13.06.2018 12:00:00 13,2 9,4 - 21 11 - - Z 1010,3 40 0,0
13.06.2018 11:00:00 12,0 7,8 - 16 9 - - ZO 1011,2 45 0,0
13.06.2018 10:00:00 11,9 6,4 13,7 18 10 - - ZO 1012,2 30 0,0
13.06.2018 09:00:00 11,3 6,4 - 15 8 - - ZZO 1013,1 30 0,0
13.06.2018 08:00:00 10,9 5,8 - 11 6 - - ZO 1013,8 35 0,0
13.06.2018 07:00:00 10,5 5,5 - 5 3 - - Z 1014,4 35 0,0
13.06.2018 06:00:00 9,7 5,7 - 5 3 - - Z 1015,3 30 0,0
13.06.2018 05:00:00 9,2 5,9 - 4 2 - - ZZW 1015,7 45 0,0

tt = temperatuur
td = dauwpunt
tt -20cm = temperatuur -20cm
ff = windsnelheid
fx = windstoten
dd = windrichting
ppp = luchtdruk
vv = zicht
rr = neerslag

Weerstations in de omgeving